This is the latest recevied weather packets stored in our database for station/object DL0BB-10. If no packets are shown the sender has not sent any weather packets the latest 10 day(s).
| Time | Temp. | Humidity | Pressure | Rain* | Wind** | Luminosity | Snow |
|---|---|---|---|---|---|---|---|
| 1787798675 | 25.56° C | 39% | 1012.7 hPa | - | - | - | - |
| 1787797775 | 25.56° C | 39% | 1012.6 hPa | - | - | - | - |
| 1787796875 | 25° C | 41% | 1012.8 hPa | - | - | - | - |
| 1787795975 | 25° C | 40% | 1012.9 hPa | - | - | - | - |
| 1787795075 | 25.56° C | 39% | 1013 hPa | - | - | - | - |
| 1787794174 | 25.56° C | 39% | 1013.3 hPa | - | - | - | - |
| 1787793274 | 25° C | 41% | 1013.4 hPa | - | - | - | - |
| 1787792374 | 25.56° C | 40% | 1013.3 hPa | - | - | - | - |
| 1787791473 | 25.56° C | 39% | 1013.2 hPa | - | - | - | - |
| 1787790573 | 25.56° C | 40% | 1013.1 hPa | - | - | - | - |
| 1787789673 | 25° C | 41% | 1013 hPa | - | - | - | - |
| 1787788773 | 25.56° C | 40% | 1013 hPa | - | - | - | - |
| 1787787873 | 26.11° C | 39% | 1013.3 hPa | - | - | - | - |
| 1787786973 | 26.11° C | 40% | 1013.7 hPa | - | - | - | - |
| 1787786073 | 25.56° C | 41% | 1013.7 hPa | - | - | - | - |
| 1787785172 | 25.56° C | 40% | 1013.7 hPa | - | - | - | - |
| 1787784271 | 26.11° C | 39% | 1013.5 hPa | - | - | - | - |
| 1787783370 | 26.11° C | 39% | 1013.7 hPa | - | - | - | - |
| 1787782470 | 25.56° C | 40% | 1013.8 hPa | - | - | - | - |
| 1787780670 | 26.67° C | 38% | 1013.8 hPa | - | - | - | - |
| 1787779769 | 26.11° C | 40% | 1014.1 hPa | - | - | - | - |
| 1787778869 | 25.56° C | 40% | 1014.1 hPa | - | - | - | - |
| 1787777969 | 26.11° C | 39% | 1014 hPa | - | - | - | - |
| 1787777072 | 26.67° C | 38% | 1014 hPa | - | - | - | - |
| 1787776172 | 26.11° C | 40% | 1014.3 hPa | - | - | - | - |
* Rain since midnight (hover to see other rain measurements)
** Current wind speed in m/s (hover to see current wind gust speed)